TimeCDT,TemperatureF,Dew PointF,Humidity,Sea Level PressureIn,VisibilityMPH,Wind Direction,Wind SpeedMPH,Gust SpeedMPH,PrecipitationIn,Events,Conditions,WindDirDegrees,DateUTC
12:53 AM,63.0,48.0,58,29.74,10.0,SSE,12.7,-,N/A,,Clear,160,2013-04-02 05:53:00
1:53 AM,66.0,44.1,45,29.73,10.0,South,13.8,-,N/A,,Clear,170,2013-04-02 06:53:00
2:53 AM,64.9,43.0,45,29.73,10.0,SW,15.0,-,N/A,,Clear,220,2013-04-02 07:53:00
3:53 AM,62.1,45.0,53,29.74,10.0,SSE,5.8,-,N/A,,Clear,150,2013-04-02 08:53:00
4:53 AM,60.1,46.9,62,29.73,10.0,South,9.2,-,N/A,,Clear,170,2013-04-02 09:53:00
5:53 AM,57.9,48.0,70,29.73,10.0,SSE,11.5,-,N/A,,Clear,150,2013-04-02 10:53:00
6:53 AM,59.0,48.9,69,29.75,10.0,SSE,11.5,-,N/A,,Clear,160,2013-04-02 11:53:00
7:53 AM,57.0,48.9,74,29.79,10.0,Variable,4.6,-,N/A,,Clear,0,2013-04-02 12:53:00
8:53 AM,60.1,46.0,60,29.83,10.0,West,9.2,-,N/A,,Clear,280,2013-04-02 13:53:00
9:53 AM,59.0,44.1,58,29.87,10.0,West,12.7,-,N/A,,Clear,280,2013-04-02 14:53:00
10:53 AM,61.0,44.1,54,29.88,10.0,West,13.8,21.9,N/A,,Clear,280,2013-04-02 15:53:00
11:53 AM,66.0,46.9,50,29.88,10.0,WNW,15.0,21.9,N/A,,Clear,290,2013-04-02 16:53:00
12:53 PM,66.9,48.0,51,29.88,10.0,WNW,21.9,34.5,N/A,,Clear,290,2013-04-02 17:53:00
1:53 PM,62.1,45.0,53,29.88,10.0,NW,21.9,29.9,N/A,,Clear,320,2013-04-02 18:53:00
2:53 PM,57.9,44.1,60,29.90,10.0,NW,19.6,27.6,N/A,,Mostly Cloudy,310,2013-04-02 19:53:00
3:40 PM,55.4,42.8,63,29.91,10.0,NE,18.4,24.2,0.00,Rain,Light Rain,50,2013-04-02 20:40:00
3:53 PM,55.9,43.0,62,29.82,10.0,ENE,16.1,-,0.00,,Partly Cloudy,70,2013-04-02 20:53:00
4:53 PM,55.9,44.1,64,29.85,10.0,North,6.9,-,0.00,,Partly Cloudy,360,2013-04-02 21:53:00
5:53 PM,59.0,45.0,60,29.83,10.0,NNE,6.9,-,N/A,,Clear,20,2013-04-02 22:53:00
6:53 PM,59.0,45.0,60,29.82,10.0,ENE,11.5,-,N/A,,Clear,60,2013-04-02 23:53:00
7:53 PM,53.1,43.0,69,29.83,10.0,NE,8.1,-,N/A,,Clear,40,2013-04-03 00:53:00
8:37 PM,48.2,42.8,82,29.93,10.0,NNE,12.7,-,N/A,,Mostly Cloudy,20,2013-04-03 01:37:00
8:53 PM,48.0,41.0,77,29.87,10.0,NE,15.0,-,N/A,,Overcast,50,2013-04-03 01:53:00
9:09 PM,46.4,41.0,81,29.95,10.0,NE,13.8,-,N/A,,Overcast,40,2013-04-03 02:09:00
9:53 PM,46.0,39.9,79,29.91,10.0,NE,15.0,-,N/A,,Overcast,50,2013-04-03 02:53:00
10:42 PM,44.6,39.2,81,30.00,9.0,NE,10.4,-,N/A,,Overcast,40,2013-04-03 03:42:00
10:53 PM,44.1,39.9,85,29.93,9.0,NNE,11.5,-,N/A,,Overcast,30,2013-04-03 03:53:00
11:53 PM,43.0,39.9,89,29.95,5.0,NNE,6.9,-,N/A,,Overcast,30,2013-04-03 04:53:00